This is the latest recevied weather packets stored in our database for station/object N6DZK. If no packets are shown the sender has not sent any weather packets the latest 10 day(s).
| Time | Temp. | Humidity | Pressure | Rain* | Wind** | Luminosity | Snow |
|---|---|---|---|---|---|---|---|
| 1777510832 | 24.44° C | 45% | 1015 hPa | 0 mm | - | 162 W/m² | - |
| 1777510530 | 24.44° C | 44% | 1015.3 hPa | 0 mm | - | 251 W/m² | - |
| 1777510226 | 24.44° C | 44% | 1015.1 hPa | 0 mm | - | 275 W/m² | - |
| 1777509922 | 24.44° C | 42% | 1015.1 hPa | 0 mm | - | 205 W/m² | - |
| 1777509618 | 24.44° C | 42% | 1015.2 hPa | 0 mm | - | 280 W/m² | - |
| 1777509315 | 25° C | 39% | 1015.1 hPa | 0 mm | - | 118 W/m² | - |
| 1777509012 | 25° C | 40% | 1015 hPa | 0 mm | - | 321 W/m² | - |
| 1777508709 | 25° C | 38% | 1015.1 hPa | 0 mm | - | 358 W/m² | - |
| 1777508406 | 25° C | 39% | 1015.1 hPa | 0 mm | - | 385 W/m² | - |
| 1777508103 | 25.56° C | 38% | 1015.1 hPa | 0 mm | - | 404 W/m² | - |
| 1777507800 | 25.56° C | 38% | 1015 hPa | 0 mm | - | 419 W/m² | - |
| 1777507496 | 25.56° C | 39% | 1015.4 hPa | 0 mm | - | 360 W/m² | - |
| 1777507193 | 25.56° C | 38% | 1015.2 hPa | 0 mm | - | 458 W/m² | - |
| 1777506892 | 26.11° C | 40% | 1015.3 hPa | 0 mm | - | 478 W/m² | - |
| 1777506588 | 26.11° C | 39% | 1015 hPa | 0 mm | - | 495 W/m² | - |
| 1777506284 | 26.11° C | 38% | 1014.9 hPa | 0 mm | - | 517 W/m² | - |
| 1777505980 | 26.67° C | 38% | 1015.1 hPa | 0 mm | - | 538 W/m² | - |
| 1777505676 | 26.11° C | 38% | 1015.2 hPa | 0 mm | - | 559 W/m² | - |
| 1777505374 | 26.67° C | 38% | 1015 hPa | 0 mm | - | 576 W/m² | - |
| 1777505070 | 26.67° C | 37% | 1015.1 hPa | 0 mm | - | 595 W/m² | - |
| 1777504767 | 27.22° C | 37% | 1015.2 hPa | 0 mm | - | 613 W/m² | - |
| 1777504464 | 27.22° C | 35% | 1015.4 hPa | 0 mm | - | 632 W/m² | - |
| 1777504160 | 26.67° C | 37% | 1015.3 hPa | 0 mm | - | 649 W/m² | - |
| 1777503855 | 27.22° C | 35% | 1015.3 hPa | 0 mm | - | 673 W/m² | - |
| 1777503552 | 27.78° C | 33% | 1015.5 hPa | 0 mm | - | 692 W/m² | - |
* Rain latest hour (hover to see other rain measurements)
** Current wind speed in m/s (hover to see current wind gust speed)